{"data":{"norad_id":68799,"intl_designator":"2026-088H","name":"KAKUSHIN RISING OBJECT H","alt_names":[],"object_type":"PAYLOAD","status":"ACTIVE","operator":null,"country":"JPN","launch_date":"2026-04-23","launch_site_code":"RLLB","launch_vehicle":null,"mission":null,"orbit_class":"UNKNOWN","rcs_meters":null,"size_class":null,"mass_kg":null,"dimensions":null,"purposes":[],"wikipedia_slug":null,"has_3d_model":false,"image_url":null,"decayed_at":null,"tle_current":{"epoch":"2026-05-25T04:46:27.273792Z","epoch_age_seconds":51807,"freshness":"FRESH","line1":"1 68799U 26088H   26145.19892678  .00003557  00000+0  23049-3 0  9991","line2":"2 68799  97.5026 295.1321 0020004 155.8725 204.3445 15.08599292  4839","mean_motion":15.08599292,"eccentricity":0.0020004,"inclination_deg":97.5026,"raan_deg":295.1321,"arg_perigee_deg":155.8725,"mean_anomaly_deg":204.3445,"bstar":0.00023049,"rev_number":483,"period_min":95.452782434423,"perigee_km":526.63923493376,"apogee_km":554.31923476615,"semimajor_km":6918.61623485,"source":"CELESTRAK","updated_at":"2026-05-25T13:38:08.089448Z"}}}